Home > Weather > Slough > Past weeks

Flag for United Kingdom Past Weather in Slough, England, United Kingdom — Yesterday and Last 2 Weeks

Now
55 °F

Passing clouds.


Feels Like: 53 °F
Forecast: 52 / 58 °F
Wind: 10 mph from North

Location: London City Airport

Current Time: May 30, 2016 at 4:05:47 AM

Latest Report: May 30, 2016 at 3:20 AM


Visibility: N/A

Pressure: 29.98 "Hg

Humidity: 82%

Dew Point: 50 °F

Location of SloughLocation

Past Weather in Slough — Graph

°F

Slough Temperature Yesterday

Maximum temperature yesterday: 66 °F (at 5:20 PM)
Minimum temperature yesterday: 50 °F (at 4:50 AM)
Average temperature yesterday: 57 °F

High & Low Weather Summary for the Past Weeks

 TemperatureHumidityPressure
High68 °F (May 20, 2:50 PM)94% (May 19, 1:50 AM)30.21 "Hg (May 19, 1:50 AM)
Low45 °F (May 15, 3:20 AM)36% (May 15, 1:20 PM)29.59 "Hg (May 18, 3:20 PM)
Average57 °F69%29.97 "Hg
* Reported May 15 2:20 AM — May 30 2:50 AM, Slough, Weather by CustomWeather, © 2016

Note: Actual official high and low records may vary slightly from our data, if they occured in-between our weather recording intervals... More about our weather records

Advertising

Slough Weather History for the Previous 24 Hours

Scroll right to see more
 ConditionsComfort  
Time TempWeatherWind HumidityBarometerVisibility
2:50 AM
Mon, May 30
55 °FPassing clouds.9 mph82%29.98 "HgN/A
2:20 AM55 °FPassing clouds.8 mph82%29.98 "HgN/A
1:50 AM55 °FPartly cloudy.9 mph88%29.95 "HgN/A
1:20 AM55 °FPassing clouds.12 mph88%29.95 "HgN/A
12:50 AM55 °FPassing clouds.7 mph82%29.98 "HgN/A
12:20 AM55 °FPartly cloudy.9 mph88%30.01 "Hg6 mi
11:50 PM
Sun, May 29
55 °FPartly cloudy.8 mph88%30.01 "HgN/A
11:20 PM55 °FPartly cloudy.8 mph82%29.98 "HgN/A
10:50 PM55 °FPassing clouds.9 mph82%29.98 "HgN/A
10:20 PM57 °FPassing clouds.8 mph82%29.98 "HgN/A
9:50 PM57 °FPartly sunny.8 mph82%29.95 "HgN/A
9:20 PM59 °FScattered clouds.9 mph77%29.95 "HgN/A
8:50 PM59 °FPassing clouds.9 mph77%29.95 "HgN/A
8:20 PM61 °FPassing clouds.12 mph72%29.92 "HgN/A
7:50 PM63 °FPassing clouds.9 mph73%29.92 "HgN/A
7:20 PM64 °FPassing clouds.13 mph68%29.92 "HgN/A
6:50 PM64 °FScattered clouds.10 mph64%29.92 "HgN/A
6:20 PM64 °FScattered clouds.10 mph68%29.92 "HgN/A
5:50 PM64 °FScattered clouds.13 mph68%29.89 "HgN/A
5:20 PM66 °FScattered clouds.13 mph64%29.89 "HgN/A
4:50 PM64 °FPartly sunny.10 mph68%29.89 "HgN/A
4:20 PM64 °FScattered clouds.13 mph68%29.89 "HgN/A
3:50 PM64 °FPartly sunny.13 mph64%29.92 "HgN/A
3:20 PM64 °FPartly sunny.9 mph64%29.92 "HgN/A
2:50 PM61 °FPartly sunny.10 mph72%29.92 "HgN/A
2:20 PM61 °FPartly sunny.9 mph72%29.92 "HgN/A
1:50 PM63 °FPartly sunny.12 mph68%29.92 "HgN/A
1:20 PM61 °FPartly sunny.13 mph72%29.92 "HgN/A
12:50 PM59 °FPartly sunny.10 mph77%29.92 "HgN/A
12:20 PM57 °FOvercast.12 mph82%29.92 "HgN/A
11:50 AM57 °FOvercast.8 mph77%29.92 "HgN/A
11:20 AM57 °FOvercast.9 mph77%29.92 "HgN/A
10:50 AM55 °FOvercast.10 mph82%29.92 "HgN/A
10:20 AM55 °FPartly sunny.12 mph77%29.92 "HgN/A
9:50 AM54 °FOvercast.9 mph82%29.92 "HgN/A
9:20 AM54 °FBroken clouds.10 mph82%29.92 "HgN/A
8:50 AM52 °FPartly sunny.8 mph88%29.89 "HgN/A
8:20 AM52 °FBroken clouds.8 mph88%29.89 "HgN/A
7:50 AM52 °FBroken clouds.8 mph82%29.92 "HgN/A
7:20 AM52 °FScattered clouds.8 mph82%29.89 "HgN/A
6:50 AM52 °FCool.7 mph82%29.89 "HgN/A
6:20 AM50 °FScattered clouds.8 mph88%29.89 "Hg6 mi
5:50 AM50 °FPassing clouds.7 mph88%29.92 "Hg5 mi
5:20 AM50 °FCool.6 mph88%29.92 "HgN/A
4:50 AM50 °FCool.5 mph82%29.89 "HgN/A
4:20 AM52 °FCool.5 mph77%29.92 "HgN/A
Weather by CustomWeather, © 2016

See weather overviewHow to use our weather pages